EW9837 Weather Reports


Display with metric or nautical units.
time (UTC)temp
F
wind
direction
speed
MPH
gust
MPH
rain 1hr
in
rain 24hr
in
rain mn
in
humidity
%
barometer
mb
20260906171535 51 318 2.0 5.0 0.02 0.37 0.24 99 1019.3
20260906170032 52 326 2.0 5.0 0.02 0.37 0.24 99 1019.2
20260906164537 52 315 1.0 3.0 0.02 0.37 0.23 99 1019.2
20260906163032 51 315 1.0 4.0 0.02 0.36 0.22 98 1019.2
20260906161534 51 332 1.0 3.0 0.01 0.35 0.22 98 1019.1
20260906160034 51 327 2.0 4.0 0.01 0.35 0.22 98 1019.1
20260906153033 51 157 0.0 0.0 0.01 0.34 0.21 98 1018.9
20260906151609 51 157 0.0 0.0 0.02 0.34 0.21 98 1018.7
20260906150200 51 157 0.0 0.0 0.03 0.34 0.21 98 1018.6
20260906144648 51 157 0.0 0.0 0.04 0.34 0.20 98 1018.5
20260906143036 51 157 0.0 2.0 0.05 0.33 0.19 98 1018.3
20260906141534 50 157 0.0 1.0 0.06 0.32 0.18 98 1018.2
20260906134608 51 146 0.0 0.0 0.05 0.30 0.15 98 1017.9
20260906131536 50 292 0.0 0.0 0.03 0.26 0.12 98 1017.8
20260906130036 51 292 0.0 0.0 0.02 0.25 0.12 98 1017.9
20260906124537 51 214 0.0 0.0 0.02 0.25 0.11 98 1017.9
20260906123035 51 156 0.0 3.0 0.01 0.24 0.10 98 1018.0
20260906121607 51 156 2.0 4.0 0.00 0.23 0.10 98 1018.0
20260906120032 51 149 0.0 4.0 0.01 0.23 0.10 98 1018.0
20260906114531 51 267 0.0 1.0 0.01 0.23 0.10 98 1018.1
20260906113034 51 256 0.0 3.0 0.01 0.23 0.10 98 1018.2
20260906111535 51 163 0.0 3.0 0.02 0.23 0.09 98 1018.2
20260906110036 51 236 0.0 1.0 0.01 0.22 0.09 98 1018.2
20260906101534 51 165 0.0 2.0 0.05 0.21 0.08 98 1018.8
20260906100034 51 333 0.0 3.0 0.06 0.21 0.07 98 1018.7
20260906093034 51 171 0.0 2.0 0.04 0.17 0.03 97 1018.8
20260906091538 51 109 1.0 3.0 0.03 0.16 0.02 97 1018.8
20260906090037 50 189 0.0 2.0 0.02 0.15 0.00 97 1018.9
20260906083111 50 187 0.0 2.0 0.00 0.13 0.00 97 1018.9
20260906081535 50 189 0.0 2.0 0.00 0.13 0.00 97 1018.7
20260906080037 50 157 0.0 3.0 0.00 0.13 0.00 97 1018.6
20260906074607 50 157 0.0 2.0 0.00 0.13 0.00 97 1018.5
20260906073035 49 180 0.0 2.0 0.00 0.13 0.00 97 1018.6
20260906071609 49 180 0.0 1.0 0.00 0.14 0.00 96 1018.7
20260906064533 49 153 1.0 3.0 0.00 0.14 0.14 96 1018.9
20260906063040 48 180 0.0 2.0 0.00 0.14 0.14 96 1019.0
20260906061535 48 180 0.0 2.0 0.00 0.14 0.14 96 1019.1
20260906060031 48 180 0.0 0.0 0.00 0.15 0.14 96 1019.1
20260906053033 49 163 1.0 2.0 0.00 0.16 0.14 95 1019.2
20260906051534 49 180 0.0 3.0 0.00 0.16 0.14 95 1019.3
20260906050032 50 218 0.0 3.0 0.00 0.16 0.14 95 1019.3
20260906044606 50 225 0.0 0.0 0.00 0.16 0.14 95 1019.5
20260906043035 50 225 0.0 0.0 0.00 0.16 0.14 95 1019.6
20260906041610 51 225 0.0 0.0 0.00 0.16 0.14 95 1019.5
20260906040034 51 191 0.0 4.0 0.00 0.16 0.14 94 1019.5
20260906033033 51 175 3.0 5.0 0.00 0.16 0.14 93 1019.1
20260906031534 52 173 3.0 4.0 0.00 0.16 0.14 92 1019.1
20260906030030 53 179 3.0 5.0 0.00 0.16 0.14 92 1019.0
20260906024537 54 171 3.0 5.0 0.00 0.16 0.14 91 1019.0
20260906023029 55 176 3.0 5.0 0.00 0.16 0.14 90 1019.1
20260906021533 57 173 1.0 4.0 0.00 0.16 0.14 89 1019.1
20260906020033 58 175 0.0 2.0 0.00 0.16 0.14 87 1019.2
20260906014534 58 157 0.0 1.0 0.00 0.16 0.14 85 1019.1
20260906013035 59 159 0.0 1.0 0.00 0.16 0.14 84 1019.1
20260906011533 59 225 0.0 1.0 0.00 0.16 0.14 85 1019.2
20260906010035 60 242 0.0 3.0 0.00 0.16 0.14 86 1019.4
20260906004536 60 315 0.0 1.0 0.00 0.16 0.14 84 1019.6
20260906003037 60 291 0.0 2.0 0.01 0.16 0.14 85 1019.6
20260906001535 58 124 1.0 6.0 0.02 0.16 0.14 88 1019.7
20260905234534 58 125 1.0 8.0 0.02 0.16 0.13 88 1019.5
20260905233034 59 181 0.0 6.0 0.01 0.15 0.12 87 1019.6
20260905231534 59 283 0.0 2.0 0.10 0.14 0.12 87 1019.7
20260905224534 58 261 0.0 3.0 0.11 0.14 0.12 85 1019.5
20260905221608 62 225 2.0 8.0 0.01 0.04 0.01 73 1019.6
20260905214642 63 205 1.0 4.0 0.00 0.03 0.01 71 1019.5
20260905213034 62 85 0.0 3.0 0.00 0.03 0.01 70 1019.5
20260905211643 62 295 0.0 2.0 0.00 0.03 0.01 71 1019.7
20260905210033 62 282 0.0 4.0 0.00 0.03 0.01 71 1019.9
20260905203105 61 301 0.0 3.0 0.00 0.03 0.01 72 1020.0
20260905201531 60 70 1.0 3.0 0.00 0.03 0.01 74 1020.0
20260905200034 60 354 1.0 5.0 0.00 0.03 0.01 73 1020.1
20260905194532 61 245 1.0 4.0 0.00 0.03 0.01 75 1020.2
20260905191534 58 263 2.0 8.0 0.00 0.03 0.01 81 1020.2
20260905190035 57 305 1.0 3.0 0.00 0.03 0.01 81 1020.3
20260905184536 58 317 1.0 6.0 0.00 0.03 0.01 82 1020.4
20260905183037 58 340 2.0 5.0 0.00 0.03 0.01 83 1020.5
20260905181536 58 16 2.0 5.0 0.00 0.03 0.01 84 1020.6
20260905180144 57 1 1.0 5.0 0.00 0.03 0.01 86 1020.6
20260905173135 55 45 1.0 4.0 0.00 0.03 0.01 94 1020.6